Location: Unspecified
(40.7945°N, 0.0000°E)
Time: 08:09:27
(UTC+00:00)

Tiros 1 despin weight - Pass Details

Date: 29 January 2021
Orbit: 593 x 642 km, 48.2° (Epoch: 05 March)

Event Time Altitude Azimuth Distance (km) Brightness Sun altitude
Rises 18:16:30 0° 297° (WNW) 2,862 ? -12.1°
Reaches altitude 10° 18:18:51 10° 292° (WNW) 1,948 ? -12.5°
Maximum altitude 18:23:11 53° 216° (SW) 737 ? -13.3°
Drops below altitude 10° 18:27:28 10° 140° (SE) 1,919 ? -14.1°
Enters shadow 18:28:36 - 137° (SE) 2,353 ? -14.3°
